Regional Weather Roundup
Issued by NWS

Home | Current Version | Previous Version | Graphics & Text | Print | Product List | Glossary Off
Versions: 1 2 3 4 5 6 7 8 9 10 11 12 13 14 15 16 17 18 19 20 21 22 23 24 25 26 27 28 29 30 31 32 33 34 35 36 37 38 39 40 41 42 43 44 45 46 47 48 49 50

463
ASUS43 KDTX 200010
RWRMI
MICHIGAN HOURLY REGIONAL WEATHER ROUNDUP
NATIONAL WEATHER SERVICE DETROIT/PONTIAC MI
800 PM EDT SAT AUG 19 2017

NOTE: "FAIR" INDICATES FEW OR NO CLOUDS BELOW 12,000 FEET WITH NO
SIGNIFICANT WEATHER AND/OR OBSTRUCTION TO VISIBILITY.

MIZ047>049-052>055-059>063-066>070-074>076-081>083-200100-
SOUTHEAST LOWER MICHIGAN

CITY           SKY/WX    TMP DP  RH WIND       PRES   REMARKS
ADRIAN         CLEAR     76  60  57 CALM      29.96S
6HR MIN TEMP:  76; 6HR MAX TEMP:  82;

ALMA           CLEAR     74  58  57 W5        29.94R
ANN ARBOR      CLEAR     74  58  57 W5        29.95R
BAD AXE        CLEAR     72  59  65 CALM      29.92S
CARO           PTCLDY    72  61  69 SW3       29.92S
DETROIT CITY   CLEAR     77  54  44 NW5       29.94R
6HR MIN TEMP:  76; 6HR MAX TEMP:  80;

DETROIT        PTCLDY    77  56  48 W8        29.95R
6HR MIN TEMP:  77; 6HR MAX TEMP:  82;

FLINT          CLEAR     73  60  63 SW3       29.94R
6HR MIN TEMP:  73; 6HR MAX TEMP:  78;

GROSSE ILE     CLEAR     76  57  51 NW6       29.94R
6HR MIN TEMP:  76; 6HR MAX TEMP:  81;

HILLSDALE      MOCLDY    73  55  53 CALM      29.97R
HOWELL         CLEAR     73  58  58 SW5       29.96R
6HR MIN TEMP:  73; 6HR MAX TEMP:  78;


CITY           SKY/WX    TMP DP  RH WIND       PRES   REMARKS
JACKSON        CLEAR     75  58  55 CALM      29.96R
6HR MIN TEMP:  75; 6HR MAX TEMP:  79;

LAMBERTVILLE   CLEAR     74  61  62 CALM      29.95R
6HR MIN TEMP:  74; 6HR MAX TEMP:  81;

LANSING        CLEAR     75  57  53 W8        29.95S
6HR MIN TEMP:  75; 6HR MAX TEMP:  80;

LAPEER         FAIR      74  58  58 N5        29.94S
6HR MIN TEMP:  73; 6HR MAX TEMP:  78;

MASON          CLEAR     76  58  51 W5        29.96R
MONROE         CLEAR     74  62  66 CALM      29.94R
MT. CLEMENS    CLEAR     74  57  55 NW5       29.92R
6HR MIN TEMP:  74; 6HR MAX TEMP:  78;

PONTIAC        CLEAR     74  58  57 W6        29.94R
6HR MIN TEMP:  73; 6HR MAX TEMP:  78;

PORT HOPE        N/A     74  60  61 CALM      29.89R
6HR MIN TEMP:  72; 6HR MAX TEMP:  77;

PORT HURON     CLEAR     70  61  73 CALM      29.94R
TRI CITIES     CLEAR     75  64  68 SW6       29.93R
6HR MIN TEMP:  74; 6HR MAX TEMP:  79;

MIDLAND        FAIR      76  60  58 W5        29.91R
6HR MIN TEMP:  76; 6HR MAX TEMP:  81;

TROY           CLEAR     77  54  45 W7        29.96R
SAGINAW HB     CLEAR     73  61  64 SW5       29.92R
$$
MIZ043>046-050>051-056>058-064>065-071>073-077>080-200100-
SOUTHWEST LOWER MICHIGAN

CITY           SKY/WX    TMP DP  RH WIND       PRES   REMARKS
BATTLE CREEK   CLEAR     75  59  57 NW8       29.97S
6HR MIN TEMP:  75; 6HR MAX TEMP:  81;

BENTON HARBOR  CLEAR     73  59  61 NW3       29.97S
6HR MIN TEMP:  73; 6HR MAX TEMP:  78;

BIG RAPIDS     CLEAR     71  59  65 W5        29.94S
6HR MIN TEMP:  71; 6HR MAX TEMP:  78;

COLDWATER      CLEAR     76  55  46 W3        29.96S
6HR MIN TEMP:  76; 6HR MAX TEMP:  82;

FREMONT        FAIR      71  63  75 SW6       29.95S
6HR MIN TEMP:  71; 6HR MAX TEMP:  79;

HOLLAND        CLEAR     71  61  70 W6        29.97S
6HR MIN TEMP:  71; 6HR MAX TEMP:  76;

GRAND RAPIDS   CLEAR     74  59  59 W10       29.96R
6HR MIN TEMP:  74; 6HR MAX TEMP:  81;

IONIA          FAIR      75  59  57 W7        29.95R
6HR MIN TEMP:  75; 6HR MAX TEMP:  80;

KALAMAZOO      CLEAR     76  55  48 NW7       29.97R
6HR MIN TEMP:  76; 6HR MAX TEMP:  83;

LUDINGTON      CLEAR     70  62  77 SW12      29.93S
6HR MIN TEMP:  70; 6HR MAX TEMP:  73;

MARSHALL       CLEAR     75  56  51 CALM      29.96S
6HR MIN TEMP:  75; 6HR MAX TEMP:  81;

MOUNT PLEASANT CLEAR     77  57  50 W6        29.92S
6HR MIN TEMP:  77; 6HR MAX TEMP:  82;

MUSKEGON       CLEAR     72  62  71 S7        29.95F
6HR MIN TEMP:  72; 6HR MAX TEMP:  77;

SOUTH HAVEN    CLEAR     73  63  70 CALM      29.97S
$$
MIZ016>042-200100-
NORTHERN LOWER MICHIGAN

CITY           SKY/WX    TMP DP  RH WIND       PRES   REMARKS
ALPENA         PTCLDY    68  62  81 SE3       29.89S
6HR MIN TEMP:  68; 6HR MAX TEMP:  79;

BEAVER ISLAND  CLOUDY    68  62  80 W10       29.89S
6HR MIN TEMP:  67; 6HR MAX TEMP:  73;

BELLAIRE       PTCLDY    73  61  68 CALM      29.90S
6HR MIN TEMP:  73; 6HR MAX TEMP:  78;

CADILLAC       CLEAR     73  59  61 W5        29.94S
CHARLEVOIX     CLOUDY    69  63  81 SW8       29.92S
FRANKFORT      CLEAR     71  67  89 S5        29.91S
GAYLORD        CLEAR     70  58  65 W6        29.92R
6HR MIN TEMP:  70; 6HR MAX TEMP:  76;

GRAYLING       CLEAR     73  57  57 W6        29.93R
6HR MIN TEMP:  73; 6HR MAX TEMP:  78;

HARBOR SPRINGS MOCLDY    68  64  84 W6        29.89S
HOUGHTON LAKE  CLEAR     74  58  57 W10       29.93R
6HR MIN TEMP:  73; 6HR MAX TEMP:  77;

MANISTEE       CLEAR     72  64  76 SW7       29.92S
OSCODA         PTCLDY    70  62  75 S5        29.89R
6HR MIN TEMP:  70; 6HR MAX TEMP:  79;

PELLSTON       PTCLDY    70  63  78 SW3       29.89F
6HR MIN TEMP:  70; 6HR MAX TEMP:  76;

ROGERS CITY    MOCLDY    72  62  71 NW5       29.89S
TRAVERSE CITY  PTCLDY    76  61  59 SW6       29.89S
6HR MIN TEMP:  76; 6HR MAX TEMP:  80;

$$
MIZ007>008-015-200100-
EASTERN UPPER MICHIGAN

CITY           SKY/WX    TMP DP  RH WIND       PRES   REMARKS
KINROSS        CLEAR     68  62  81 W6        29.88S
6HR MIN TEMP:  68; 6HR MAX TEMP:  74;

MACKINAC ISLAN CLEAR     66  66 100 SW8       29.88S
6HR MIN TEMP:  66; 6HR MAX TEMP:  70;

NEWBERRY       CLEAR     70  65  85 SW5       29.87R
6HR MIN TEMP:  70; 6HR MAX TEMP:  76;

S. S. MARIE    CLEAR     69  60  73 W5        29.86S
6HR MIN TEMP:  69; 6HR MAX TEMP:  76;

MUNISING         N/A     70  62  76 CALM      29.86S
6HR MIN TEMP:  69; 6HR MAX TEMP:  73;

$$
MIZ004>006-011>014-085-200100-
CENTRAL UPPER MICHIGAN

CITY           SKY/WX    TMP DP  RH WIND       PRES   REMARKS
MANISTIQUE     PTCLDY    67  61  81 CALM      29.87S
6HR MIN TEMP:  66; 6HR MAX TEMP:  75; 6HR PCP:  0.01;

ESCANABA       MOCLDY    75  65  70 E6        29.85R
6HR MIN TEMP:  74; 6HR MAX TEMP:  80;

MENOMINEE      CLEAR     77  61  57 SW3       29.88S
6HR MIN TEMP:  77; 6HR MAX TEMP:  81;

SAWYER-GWINN   CLEAR     72  63  73 NE3       29.89R
$$
MIZ001>003-009>011-084-200100-
WESTERN UPPER MICHIGAN

CITY           SKY/WX    TMP DP  RH WIND       PRES   REMARKS
IRON MOUNTAIN  CLEAR     77  57  50 NW6       29.87S
6HR MIN TEMP:  77; 6HR MAX TEMP:  82;

COPPER HARBOR    N/A     69  60  73 SE5       29.83S
6HR MIN TEMP:  64; 6HR MAX TEMP:  69;

IRONWOOD       CLEAR     76  60  57 SW6       29.88F
6HR MIN TEMP:  74; 6HR MAX TEMP:  78;

$$

ABBREVIATIONS USED IN REMARKS
   TC - TEMPERATURE IN CELSIUS
  WCI - WIND CHILL INDEX
   HX - HEAT INDEX
  VSB - VISIBILITY





USA.gov is the U.S. government's official web portal to all federal, state and local government web resources and services.